Retour au catalogue

BREEZE-M DEB

TANK

ActifHEO
NORAD 40986·DEBRIS·🇷🇺 Russia

Lancé Oct 16, 2015 depuis Baikonur Cosmodrome

Loading…

Prochains Passages (prochaines 24 heures)

TLE

FraisSource: Space-Track

Époque: Sep 14, 2026, 15:48 UTC

1 40986U 15060C   26257.65839370  .00000540  00000-0  27411-3 0  9999
2 40986  49.0465 134.7910 6078532 297.3182  14.3197  3.85676044152416

Suivez BREEZE-M DEB en temps réel avec AllMySat

Download on the App Store